sat.trackr.live / text

‹ back to catalog

COSMO-SKYMED 2

NORAD 32376 · 2007-059A

PAYLOAD ACTIVE UNKNOWN

§ Identity

Operator
Country
IT
Launch date
2007-12-09
Launch site
AFWTR
Launch vehicle
Mass (kg)
RCS (m²)
5.57

Purposes: earth_obs

External: N2YO · Heavens-Above · Gunter

§ Orbital elements

Epoch: 2026-09-19T22:42:04.159008Z

Period
97.16 min
Inclination
97.8915°
Eccentricity
0.0001339
Mean motion
14.82152313 rev/d
Perigee alt
621.6 km
Apogee alt
623.5 km
Semi-major
7,000.7 km
B*
3.6063e-5
RAAN
85.1949°
Arg perigee
91.3803°
Mean anomaly
268.7564°
Rev number
1,604

§ Raw data

COSMO-SKYMED 21 32376U 07059A   26262.94588147  .00000235  00000+0  36063-4 0  99972 32376  97.8915  85.1949 0001339  91.3803 268.7564 14.82152313 16047

JSON: /api/v1/satellites/32376 · /tle

For live sub-satellite position, see the globe view (requires WebGL).

§ Visibility from observer

Set your observer location to see the next 7 days of passes ≥ 10°. The values pass through the URL so the page stays shareable.

No JS? Fill the form by hand. The geolocation button needs JavaScript.

§ Radio — SatNOGS DB

ModeDescriptionDownlinkUplink
FM S-band telemetry 2.242 GHz
BPSK S-band telemetry 2.230 GHz

2 transmitters · refreshed weekly from db.satnogs.org